Change the Weather History Date:

Wednesday, October 10, 2012

  Actual Average Record
Temperature  
Mean Temperature 52 °F -  
Max Temperature 67 °F 70 °F 80 °F (1999)
Min Temperature 39 °F 48 °F 33 °F (2000)
Degree Days  
Heating Degree Days 12    
Growing Degree Days 2 (Base 50)    
Moisture  
Dew Point 28 °F    
Average Humidity 43    
Maximum Humidity 75    
Minimum Humidity 20    
Precipitation  
Precipitation 0.00 in - - ()
Sea Level Pressure  
Sea Level Pressure 30.20 in    
Wind  
Wind Speed 6 mph (ENE)    
Max Wind Speed 12 mph    
Max Gust Speed -    
Visibility 10 miles    
Events      
Averages and records for this station are not official NWS values.
T = Trace of Precipitation, MM = Missing Value Source: NWS Daily Summary

Daily Weather History Graph

Daily Weather History Graph

Search for Another Location

Airport or City:

Trip Planner

Search our weather history database for the weather conditions in past years. The results will help you decide how hot, cold, wet, or windy it might be!

Date:

Astronomy

Oct. 10, 2012 Rise Set
Actual Time 7:33 AM CDT 6:58 PM CDT
Civil Twilight 7:06 AM CDT 7:24 PM CDT
Nautical Twilight 6:36 AM CDT 7:54 PM CDT
Astronomical Twilight 6:06 AM CDT 8:24 PM CDT
Moon 2:16 AM CDT (10/10) 3:56 PM CDT (10/10)
Length of Visible Light 12h 17m
Length of Day
11h 24m
Waning Crescent, 27% of the Moon is Illuminated
Oct 10
Waning Crescent
Oct 15
New
Oct 21
First Quarter
Oct 29
Full
Nov 6
Last Quarter

Hourly Weather History & Observations

Time (CDT) Temp. Windchill Dew Point Humidity Pressure Visibility Wind Dir Wind Speed Gust Speed Precip Events Conditions
12:55 AM 42.8 °F 37.5 °F 31.6 °F 65% 30.19 in 10.0 mi NNE 9.2 mph - N/A   Clear
1:55 AM 42.1 °F 38.4 °F 30.2 °F 63% 30.20 in 10.0 mi NNE 5.8 mph - N/A   Clear
2:55 AM 42.1 °F 37.7 °F 29.7 °F 61% 30.21 in 10.0 mi NE 6.9 mph - N/A   Clear
3:55 AM 41.0 °F 36.4 °F 29.5 °F 64% 30.21 in 10.0 mi North 6.9 mph - N/A   Clear
4:55 AM 42.3 °F 39.4 °F 29.8 °F 61% 30.23 in 10.0 mi North 4.6 mph - N/A   Clear
5:55 AM 40.8 °F 38.8 °F 30.0 °F 65% 30.24 in 10.0 mi North 3.5 mph - N/A   Clear
6:55 AM 39.2 °F 35.9 °F 30.9 °F 72% 30.26 in 10.0 mi NNE 4.6 mph - N/A   Clear
7:55 AM 39.2 °F 35.0 °F 31.8 °F 75% 30.27 in 10.0 mi North 5.8 mph - N/A   Clear
8:55 AM 43.9 °F - 33.1 °F 66% 30.29 in 10.0 mi Calm Calm - N/A   Clear
9:55 AM 51.3 °F - 26.8 °F 39% 30.31 in 10.0 mi Calm Calm - N/A   Clear
11:55 AM 60.3 °F - 23.5 °F 24% 30.30 in 10.0 mi Calm Calm - N/A   Clear
12:55 PM 62.4 °F - 23.7 °F 23% 30.28 in 10.0 mi Calm Calm - N/A   Clear
1:55 PM 64.0 °F - 24.4 °F 22% 30.24 in 10.0 mi Variable 5.8 mph - N/A   Clear
2:55 PM 65.3 °F - 23.5 °F 20% 30.20 in 10.0 mi Variable 3.5 mph - N/A   Clear
3:55 PM 66.0 °F - 23.9 °F 20% 30.17 in 10.0 mi Calm Calm - N/A   Clear
4:55 PM 66.6 °F - 24.6 °F 20% 30.15 in 10.0 mi Variable 4.6 mph - N/A   Clear
5:55 PM 65.5 °F - 25.0 °F 22% 30.13 in 10.0 mi SE 10.4 mph - N/A   Clear
6:55 PM 61.2 °F - 27.0 °F 27% 30.14 in 10.0 mi SE 6.9 mph - N/A   Clear
7:55 PM 58.3 °F - 27.3 °F 31% 30.14 in 10.0 mi ESE 6.9 mph - N/A   Clear
8:55 PM 55.9 °F - 28.2 °F 35% 30.14 in 10.0 mi ESE 6.9 mph - N/A   Clear
9:55 PM 54.7 °F - 28.9 °F 37% 30.12 in 10.0 mi SE 10.4 mph - N/A   Partly Cloudy
10:55 PM 52.9 °F - 30.0 °F 42% 30.13 in 10.0 mi SE 11.5 mph - N/A   Clear
11:55 PM 51.6 °F - 30.7 °F 45% 30.13 in 10.0 mi SE 9.2 mph - N/A   Partly Cloudy